| time (UTC) | temp C | wind direction | speed KPH | gust KPH | rain 1hr cm | rain 24hr cm | rain mn cm | humidity % | barometer mb |
| 20260509090027 | 11 | 37 | 0.0 | 1.6 | 0.00 | 0.00 | 0.00 | 63 | 1023.3 |
| 20260509084530 | 11 | 37 | 0.0 | 0.0 | 0.00 | 0.00 | 0.00 | 63 | 1023.0 |
| 20260509083022 | 11 | 37 | 0.0 | 0.0 | 0.00 | 0.00 | 0.00 | 61 | 1022.9 |
| 20260509081517 | 12 | 37 | 0.0 | 0.0 | 0.00 | 0.00 | 0.00 | 60 | 1022.7 |
| 20260509080009 | 13 | 37 | 0.0 | 3.2 | 0.00 | 0.00 | 0.00 | 56 | 1022.4 |
| 20260509074505 | 14 | 75 | 0.0 | 0.0 | 0.00 | 0.00 | 0.00 | 54 | 1022.1 |
| 20260509073100 | 15 | 74 | 0.0 | 3.2 | 0.00 | 0.00 | 0.00 | 52 | 1022.0 |
| 20260509071608 | 16 | 74 | 0.0 | 3.2 | 0.00 | 0.00 | 0.00 | 48 | 1021.8 |
| 20260509070051 | 17 | 74 | 0.0 | 3.2 | 0.00 | 0.00 | 0.00 | 46 | 1021.6 |
| 20260509064548 | 18 | 75 | 0.0 | 4.8 | 0.00 | 0.00 | 0.00 | 45 | 1021.5 |
| 20260509063045 | 18 | 85 | 3.2 | 6.4 | 0.00 | 0.00 | 0.00 | 44 | 1021.5 |
| 20260509061552 | 19 | 62 | 1.6 | 4.8 | 0.00 | 0.00 | 0.00 | 44 | 1021.4 |
| 20260509060039 | 19 | 180 | 0.0 | 3.2 | 0.00 | 0.00 | 0.00 | 43 | 1021.3 |
| 20260509054540 | 19 | 125 | 0.0 | 8.0 | 0.00 | 0.00 | 0.00 | 43 | 1021.3 |
| 20260509053033 | 19 | 191 | 0.0 | 8.0 | 0.00 | 0.00 | 0.00 | 43 | 1021.3 |
| 20260509051533 | 19 | 203 | 0.0 | 1.6 | 0.00 | 0.00 | 0.00 | 43 | 1021.2 |
| 20260509050126 | 19 | 203 | 3.2 | 9.7 | 0.00 | 0.00 | 0.00 | 43 | 1021.2 |
| 20260509044524 | 19 | 185 | 3.2 | 8.0 | 0.00 | 0.00 | 0.00 | 43 | 1021.2 |
| 20260509043021 | 18 | 274 | 0.0 | 8.0 | 0.00 | 0.00 | 0.00 | 45 | 1021.3 |
| 20260509041520 | 18 | 266 | 3.2 | 17.7 | 0.00 | 0.00 | 0.00 | 45 | 1021.3 |
| 20260509040013 | 18 | 256 | 8.0 | 17.7 | 0.00 | 0.00 | 0.00 | 45 | 1021.3 |
| 20260509034514 | 18 | 199 | 6.4 | 12.9 | 0.00 | 0.00 | 0.00 | 46 | 1021.4 |
| 20260509033010 | 18 | 124 | 0.0 | 6.4 | 0.00 | 0.00 | 0.00 | 48 | 1021.6 |
| 20260509031513 | 18 | 143 | 4.8 | 14.5 | 0.00 | 0.00 | 0.00 | 47 | 1021.7 |
| 20260509030039 | 17 | 210 | 0.0 | 14.5 | 0.00 | 0.00 | 0.00 | 49 | 1021.9 |
| 20260509024538 | 17 | 244 | 4.8 | 9.7 | 0.00 | 0.00 | 0.00 | 48 | 1022.0 |
| 20260509023030 | 17 | 219 | 1.6 | 14.5 | 0.00 | 0.00 | 0.00 | 50 | 1022.4 |
| 20260509021524 | 16 | 282 | 3.2 | 11.3 | 0.00 | 0.00 | 0.00 | 50 | 1022.7 |
| 20260509020021 | 16 | 280 | 6.4 | 11.3 | 0.00 | 0.00 | 0.00 | 51 | 1022.9 |
| 20260509014520 | 16 | 322 | 3.2 | 8.0 | 0.00 | 0.00 | 0.00 | 51 | 1023.0 |
| 20260509013021 | 16 | 242 | 4.8 | 9.7 | 0.00 | 0.00 | 0.00 | 57 | 1023.2 |
| 20260509011511 | 15 | 46 | 0.0 | 4.8 | 0.00 | 0.00 | 0.00 | 59 | 1023.3 |
| 20260509010013 | 15 | 132 | 0.0 | 4.8 | 0.00 | 0.00 | 0.00 | 63 | 1023.6 |
| 20260509004504 | 14 | 137 | 3.2 | 8.0 | 0.00 | 0.00 | 0.00 | 63 | 1023.8 |
| 20260509003029 | 13 | 139 | 0.0 | 6.4 | 0.00 | 0.00 | 0.00 | 67 | 1024.0 |
| 20260509001525 | 13 | 131 | 1.6 | 6.4 | 0.00 | 0.00 | 0.00 | 68 | 1024.1 |
| 20260508234546 | 11 | 337 | 1.6 | 4.8 | 0.00 | 0.00 | 0.00 | 81 | 1024.3 |
| 20260508233040 | 10 | 326 | 0.0 | 1.6 | 0.00 | 0.00 | 0.00 | 87 | 1024.5 |
| 20260508231537 | 8 | 326 | 0.0 | 0.0 | 0.00 | 0.00 | 0.00 | 95 | 1024.6 |
| 20260508230035 | 6 | 326 | 0.0 | 0.0 | 0.00 | 0.00 | 0.00 | 94 | 1024.6 |
| 20260508224533 | 5 | 326 | 0.0 | 1.6 | 0.00 | 0.00 | 0.00 | 94 | 1024.5 |
| 20260508223100 | 5 | 326 | 0.0 | 3.2 | 0.00 | 0.00 | 0.00 | 94 | 1024.4 |
| 20260508221559 | 4 | 326 | 0.0 | 0.0 | 0.00 | 0.00 | 0.00 | 94 | 1024.3 |
| 20260508220027 | 3 | 326 | 0.0 | 0.0 | 0.00 | 0.00 | 0.00 | 94 | 1024.2 |
| 20260508214516 | 2 | 326 | 0.0 | 0.0 | 0.00 | 0.00 | 0.00 | 92 | 1024.1 |
| 20260508213012 | 1 | 326 | 0.0 | 0.0 | 0.00 | 0.00 | 0.00 | 92 | 1023.9 |
| 20260508211503 | 0 | 326 | 0.0 | 0.0 | 0.00 | 0.00 | 0.00 | 90 | 1023.8 |
| 20260508210100 | 0 | 326 | 0.0 | 0.0 | 0.00 | 0.00 | 0.00 | 88 | 1023.7 |
| 20260508204615 | 0 | 326 | 0.0 | 0.0 | 0.00 | 0.00 | 0.00 | 89 | 1023.3 |
| 20260508203058 | 0 | 326 | 0.0 | 0.0 | 0.00 | 0.00 | 0.00 | 89 | 1023.2 |
| 20260508201521 | 1 | 326 | 0.0 | 0.0 | 0.00 | 0.00 | 0.00 | 89 | 1023.0 |
| 20260508200019 | 1 | 326 | 0.0 | 0.0 | 0.00 | 0.00 | 0.00 | 89 | 1022.8 |
| 20260508194549 | 1 | 326 | 0.0 | 0.0 | 0.00 | 0.00 | 0.00 | 89 | 1022.5 |
| 20260508193053 | 1 | 326 | 0.0 | 0.0 | 0.00 | 0.00 | 0.00 | 89 | 1022.2 |
| 20260508191537 | 1 | 326 | 0.0 | 0.0 | 0.00 | 0.00 | 0.00 | 88 | 1022.1 |
| 20260508190041 | 1 | 326 | 0.0 | 0.0 | 0.00 | 0.00 | 0.00 | 88 | 1022.0 |
| 20260508184535 | 1 | 326 | 0.0 | 0.0 | 0.00 | 0.00 | 0.00 | 88 | 1021.9 |
| 20260508183036 | 2 | 326 | 0.0 | 0.0 | 0.00 | 0.00 | 0.00 | 88 | 1021.8 |
| 20260508181543 | 2 | 326 | 0.0 | 0.0 | 0.00 | 0.00 | 0.00 | 87 | 1021.9 |
| 20260508180023 | 2 | 326 | 0.0 | 0.0 | 0.00 | 0.00 | 0.00 | 87 | 1021.7 |
| 20260508174525 | 2 | 326 | 0.0 | 0.0 | 0.00 | 0.00 | 0.00 | 88 | 1021.6 |
| 20260508173019 | 2 | 326 | 0.0 | 0.0 | 0.00 | 0.00 | 0.00 | 87 | 1021.7 |
| 20260508171515 | 3 | 326 | 0.0 | 0.0 | 0.00 | 0.00 | 0.00 | 87 | 1021.8 |
| 20260508170014 | 3 | 326 | 0.0 | 0.0 | 0.00 | 0.00 | 0.00 | 87 | 1021.8 |
| 20260508164515 | 3 | 326 | 0.0 | 0.0 | 0.00 | 0.00 | 0.00 | 86 | 1021.9 |
| 20260508163007 | 3 | 308 | 0.0 | 3.2 | 0.00 | 0.00 | 0.00 | 86 | 1021.6 |
| 20260508161503 | 3 | 308 | 0.0 | 0.0 | 0.00 | 0.00 | 0.00 | 86 | 1021.7 |
| 20260508160058 | 4 | 308 | 0.0 | 0.0 | 0.00 | 0.00 | 0.00 | 85 | 1021.7 |
| 20260508154558 | 4 | 308 | 0.0 | 0.0 | 0.00 | 0.00 | 0.00 | 84 | 1021.6 |
| 20260508153053 | 5 | 308 | 0.0 | 1.6 | 0.00 | 0.00 | 0.00 | 82 | 1021.6 |
| 20260508151545 | 6 | 308 | 0.0 | 3.2 | 0.00 | 0.00 | 0.00 | 82 | 1021.6 |
| 20260508150044 | 7 | 307 | 1.6 | 4.8 | 0.00 | 0.00 | 0.00 | 82 | 1021.5 |
| 20260508144543 | 7 | 307 | 3.2 | 9.7 | 0.00 | 0.00 | 0.00 | 83 | 1021.5 |
| 20260508143043 | 6 | 323 | 3.2 | 4.8 | 0.00 | 0.00 | 0.00 | 83 | 1021.4 |
| 20260508141511 | 6 | 322 | 0.0 | 6.4 | 0.00 | 0.00 | 0.00 | 81 | 1021.5 |
| 20260508140009 | 6 | 311 | 4.8 | 8.0 | 0.00 | 0.00 | 0.00 | 78 | 1021.4 |
| 20260508134559 | 7 | 240 | 0.0 | 0.0 | 0.00 | 0.00 | 0.00 | 77 | 1021.5 |
| 20260508133102 | 8 | 240 | 0.0 | 1.6 | 0.00 | 0.00 | 0.00 | 78 | 1021.4 |
| 20260508131602 | 8 | 234 | 0.0 | 1.6 | 0.00 | 0.00 | 0.00 | 76 | 1021.5 |
| 20260508130053 | 9 | 234 | 0.0 | 4.8 | 0.00 | 0.00 | 0.00 | 77 | 1021.5 |
| 20260508124545 | 9 | 233 | 0.0 | 8.0 | 0.00 | 0.00 | 0.00 | 76 | 1021.7 |
| 20260508123043 | 9 | 234 | 0.0 | 4.8 | 0.00 | 0.00 | 0.00 | 75 | 1021.7 |
| 20260508121541 | 10 | 222 | 0.0 | 3.2 | 0.00 | 0.00 | 0.00 | 74 | 1021.9 |
| 20260508120039 | 10 | 222 | 1.6 | 6.4 | 0.00 | 0.00 | 0.00 | 73 | 1021.9 |
| 20260508114505 | 10 | 226 | 0.0 | 3.2 | 0.00 | 0.00 | 0.00 | 72 | 1022.0 |
| 20260508113005 | 10 | 226 | 0.0 | 4.8 | 0.00 | 0.00 | 0.00 | 71 | 1021.9 |
| 20260508111601 | 11 | 216 | 1.6 | 11.3 | 0.00 | 0.00 | 0.00 | 72 | 1021.8 |
| 20260508110103 | 11 | 202 | 4.8 | 9.7 | 0.00 | 0.00 | 0.00 | 71 | 1021.9 |
| 20260508104558 | 11 | 214 | 11.3 | 19.3 | 0.00 | 0.00 | 0.00 | 71 | 1021.7 |
| 20260508103126 | 11 | 212 | 8.0 | 22.5 | 0.00 | 0.00 | 0.00 | 71 | 1021.8 |
| 20260508101559 | 11 | 196 | 11.3 | 24.1 | 0.00 | 0.00 | 0.00 | 71 | 1021.6 |
| 20260508100048 | 11 | 199 | 12.9 | 22.5 | 0.00 | 0.00 | 0.00 | 70 | 1021.5 |
| 20260508094603 | 11 | 224 | 1.6 | 17.7 | 0.00 | 0.00 | 0.00 | 70 | 1021.4 |
| 20260508093046 | 11 | 224 | 6.4 | 17.7 | 0.00 | 0.00 | 0.00 | 70 | 1021.3 |
| 20260508091540 | 11 | 212 | 14.5 | 22.5 | 0.00 | 0.00 | 0.00 | 70 | 1021.1 |